Flag for Chile Weather past 2 weeks in Antofagasta, Chile

Now
57 °F

Passing clouds.


Feels Like: 57 °F
Forecast: 61 / 69 °F
Wind: 1 mph from West

Location: Antofagasta Airport

Current Time: Aug 4, 2015 at 11:53:28 PM

Latest Report: Aug 4, 2015 at 11:00 PM


Visibility: N/A

Pressure: 29.92 "Hg

Humidity: 77%

Dew point: 50 °F

Location of AntofagastaLocation

Historic Weather in Antofagasta — Graph

°F

Antofagasta temperature yesterday

Maximum temperature yesterday: 64 °F (at 1:00 PM)
Minimum temperature yesterday: 57 °F (at 12:00 AM)
Average temperature yesterday: 59 °F

Past Weeks' High & Low Weather Summary

 TemperatureHumidityPressure
High66 °F (Jul 29, 2:00 PM)88% (Jul 22, 11:00 PM)30.12 "Hg (Jul 22, 11:00 PM)
Low52 °F (Aug 2, 5:00 AM)52% (Jul 21, 1:00 PM)29.80 "Hg (Aug 3, 4:00 PM)
Average59 °F73%29.96 "Hg
* Reported Jul 20 10:00 PM — Aug 4 10:00 PM, Antofagasta, Weather by CustomWeather, © 2015

Note: Actual official high and low records may vary slightly from our data, if they occured in-between our weather recording intervals... More about our weather records

Advertising

Antofagasta weather history for previous 24 hours

 ConditionsComfort  
Time TempWeatherWind HumidityBarometerVisibility
10:00 PM
Tue, Aug 4
55 °FPassing clouds.3 mph77%29.89 "HgN/A
9:00 PM57 °FPassing clouds.2 mph77%29.86 "HgN/A
8:00 PM57 °FPassing clouds.3 mph77%29.86 "HgN/A
7:00 PM59 °FPassing clouds.3 mph72%29.86 "HgN/A
6:00 PM61 °FScattered clouds.13 mph68%29.89 "HgN/A
5:00 PM61 °FPassing clouds.12 mph68%29.86 "HgN/A
4:00 PM63 °FPassing clouds.12 mph64%29.86 "HgN/A
3:00 PM63 °FPassing clouds.10 mph64%29.89 "HgN/A
2:00 PM63 °FPassing clouds.10 mph64%29.89 "HgN/A
1:00 PM63 °FPassing clouds.12 mph64%29.95 "HgN/A
12:00 PM63 °FSunny.7 mph59%29.92 "Hg10 mi
11:00 AM61 °FPassing clouds.8 mph63%29.92 "HgN/A
10:00 AM57 °FSunny.14 mph67%29.86 "Hg10 mi
9:00 AM52 °FPartly sunny.6 mph77%29.89 "HgN/A
8:00 AM55 °FScattered clouds.9 mph72%29.86 "HgN/A
7:00 AM57 °FOvercast.7 mph67%29.86 "HgN/A
6:00 AM57 °FOvercast.3 mph72%29.86 "HgN/A
5:00 AM55 °FPassing clouds.6 mph72%29.86 "HgN/A
4:00 AM57 °FOvercast.9 mph72%29.86 "HgN/A
3:00 AM57 °FOvercast.9 mph77%29.86 "HgN/A
2:00 AM57 °FOvercast.7 mph77%29.86 "HgN/A
1:00 AM57 °FOvercast.2 mph77%29.89 "HgN/A
12:00 AM57 °FOvercast.2 mph77%29.86 "HgN/A
11:00 PM
Mon, Aug 3
57 °FOvercast.5 mph77%29.83 "HgN/A
Weather by CustomWeather, © 2015

See weather overviewHow to use our weather pages